Regional Weather Roundup
Issued by NWS

Home | Current Version | Previous Version | Text Only | Print | Product List | Glossary On
Versions: 1 2 3 4 5 6 7 8 9 10 11 12 13 14 15 16 17 18 19 20 21 22 23 24 25 26 27 28 29 30 31 32 33 34 35 36 37 38 39 40 41 42 43 44 45 46 47 48 49 50
000
ASUS45 KBOI 161610
RWRID
WEATHER ROUNDUP FOR IDAHO
NATIONAL WEATHER SERVICE BOISE ID
1000 AM MDT TUE SEP 16 2014

NOTE: "FAIR" INDICATES FEW OR NO CLOUDS BELOW 12000 FEET
WITH NO SIGNIFICANT WEATHER AND/OR OBSTRUCTIONS TO VISIBILITY

IDZ012-014-161700-
SOUTHWEST IDAHO


CITY           SKY/WX    TMP DP  RH WIND       PRES   REMARKS
BOISE          PTSUNNY   72  54  53 N8G16     29.99R
CALDWELL       PTSUNNY   70  54  56 SE7       29.98S
MOUNTAIN HOME  SUNNY     75  38  25 SE5       30.01R
$$

IDZ016-017-161700-
SOUTHCENTRAL IDAHO


CITY           SKY/WX    TMP DP  RH WIND       PRES   REMARKS
BURLEY         PTSUNNY   63  46  54 E3        30.06F
JEROME         MOSUNNY   66  41  40 NE9       30.08R
TWIN FALLS     MOSUNNY   72  39  30 W13       30.07R
$$

IDZ019>023-161700-
SOUTHEAST IDAHO


CITY           SKY/WX    TMP DP  RH WIND       PRES   REMARKS
IDAHO FALLS    PTSUNNY   61  42  49 N3        30.14S
POCATELLO      PTSUNNY   64  41  42 W15G30    30.14R
REXBURG        PTSUNNY   58  43  57 NE6       30.14F
$$

IDZ006-010-011-018-031-032-161700-
CENTRAL IDAHO MOUNTAINS


CITY           SKY/WX    TMP DP  RH WIND       PRES   REMARKS
MCCALL         CLOUDY    61  43  51 W3        30.11F
HAILEY         PTSUNNY   68  46  45 W10       30.16F
STANLEY          N/A     53  41  63 CALM      30.28R
SALMON         PTSUNNY   52  39  62 NW3       30.14R
CHALLIS        CLOUDY    58  39  49 VRB5      30.18F
$$

IDZ002-004-006-007-026-161700-
NORTHERN IDAHO


CITY           SKY/WX    TMP DP  RH WIND       PRES   REMARKS
LEWISTON       PTSUNNY   63  41  44 CALM      29.88S
LOWELL           N/A     53  46  77 VRB3      30.00F
COEUR D`ALENE  MOSUNNY   61  43  51 NE10      29.93S
MULLAN PASS    MOSUNNY   63  34  33 S5        30.10S
$$


USA.gov is the U.S. government's official web portal to all federal, state and local government web resources and services.